This is the latest recevied weather packets stored in our database for station/object IK3SVW-3. If no packets are shown the sender has not sent any weather packets the latest 10 day(s).
| Time | Temp. | Humidity | Pressure | Rain* | Wind** | Luminosity | Snow |
|---|---|---|---|---|---|---|---|
| 1777995465 | 14.44° C | 98% | 1012 hPa | 0 mm | - | - | - |
| 1777993489 | 15° C | 98% | 1012 hPa | 0 mm | - | - | - |
| 1777990548 | 15° C | 95% | 1013 hPa | 0 mm | - | - | - |
| 1777989585 | 15° C | 93% | 1013 hPa | 0 mm | - | - | - |
| 1777988273 | 15.56° C | 89% | 1013 hPa | 0 mm | - | - | - |
| 1777986945 | 16.11° C | 86% | 1013 hPa | 0 mm | - | - | - |
| 1777986285 | 16.11° C | 85% | 1013 hPa | 0 mm | - | - | - |
| 1777985328 | 16.11° C | 83% | 1013 hPa | 0 mm | - | - | - |
| 1777984670 | 16.11° C | 81% | 1013 hPa | 0 mm | - | - | - |
| 1777984006 | 16.11° C | 80% | 1013 hPa | 0 mm | - | - | - |
| 1777983346 | 16.67° C | 80% | 1013 hPa | 0 mm | - | - | - |
| 1777982689 | 16.67° C | 81% | 1013 hPa | 0 mm | - | - | - |
| 1777982389 | 16.67° C | 81% | 1013 hPa | 0 mm | - | - | - |
| 1777981066 | 17.22° C | 75% | 1013 hPa | 0 mm | - | - | - |
| 1777980405 | 17.78° C | 72% | 1013 hPa | 0 mm | - | - | - |
| 1777978308 | 18.33° C | 71% | 1013 hPa | 0 mm | - | - | - |
| 1777977829 | 18.33° C | 72% | 1014 hPa | 0 mm | - | - | - |
| 1777977166 | 18.33° C | 70% | 1014 hPa | 0 mm | - | - | - |
| 1777976147 | 18.89° C | 70% | 1013 hPa | 0 mm | - | - | - |
| 1777975486 | 18.89° C | 70% | 1013 hPa | 0 mm | - | - | - |
| 1777973205 | 18.89° C | 64% | 1013 hPa | 0 mm | - | - | - |
| 1777972547 | 18.89° C | 64% | 1013 hPa | 0 mm | - | - | - |
| 1777970266 | 18.89° C | 65% | 1013 hPa | 0 mm | - | - | - |
| 1777968945 | 18.89° C | 65% | 1013 hPa | 0 mm | - | - | - |
| 1777966667 | 18.33° C | 64% | 1013 hPa | 0 mm | - | - | - |
* Rain latest hour (hover to see other rain measurements)
** Current wind speed in m/s (hover to see current wind gust speed)